Location: Newark
(49.8410°N, 5.8117°E)
Time: 10:32:10
(UTC+00:00)

ISS - Visible Passes

Search period start: 04 March 2021 00:00
Search period end: 14 March 2021 00:00
Orbit: 417 x 422 km, 51.6° (Epoch: 04 March)

Date Brightness Start Highest point End Pass type
(mag) Time Alt. Az. Time Alt. Az. Time Alt. Az.
04 Mar -0.7 03:09:46 16° ENE 03:09:46 16° ENE 03:10:31 10° ENE visible
04 Mar -3.5 04:42:44 31° WNW 04:44:07 64° N 04:47:28 10° E visible
05 Mar -3.1 03:57:03 53° NE 03:57:03 53° NE 03:59:55 10° E visible
05 Mar -3.7 05:30:08 10° WNW 05:33:30 76° SSW 05:36:52 10° ESE visible
06 Mar -0.9 03:11:24 18° ENE 03:11:24 18° ENE 03:12:24 10° ENE visible
06 Mar -3.8 04:44:21 28° WNW 04:46:01 85° NNE 04:49:23 10° ESE visible
07 Mar -3.5 03:58:44 67° NE 03:58:44 67° NE 04:01:52 10° E visible
07 Mar -3.1 05:32:02 10° W 05:35:13 40° SSW 05:38:23 10° SE visible
08 Mar -1.1 03:13:10 20° E 03:13:10 20° E 03:14:19 10° E visible
08 Mar -3.6 04:46:08 26° W 04:47:47 56° SSW 04:51:06 10° SE visible
09 Mar -3.7 04:00:38 68° SSE 04:00:38 68° SSE 04:03:41 10° ESE visible
10 Mar -1.1 03:15:13 18° ESE 03:15:13 18° ESE 03:16:11 10° ESE visible
10 Mar -2.6 04:48:12 22° WSW 04:49:24 28° SW 04:52:19 10° SSE visible
11 Mar -2.6 04:02:56 31° S 04:02:56 31° S 04:05:10 10° SE visible
12 Mar -0.7 03:17:47 10° SE 03:17:47 10° SE 03:17:51 10° SE visible
12 Mar -1.7 04:50:47 13° SW 04:50:48 13° SW 04:52:24 10° SSW visible
13 Mar -1.1 04:05:50 11° S 04:05:50 11° S 04:05:57 10° S visible
